This demonstration page uses our WeatherBlox Daily Observations layout. Learn more.

Hourly Observations for March 28, 2020

Temp ( °F °C ) Dew Point ( °F °C ) Humidity (%) Winds ( mph kmh ) Pressure ( in mb ) Visibility ( mi km ) Precip ( " mm )
12:15 am 00:15 Cloudy 43 6.1 42 5.7 97 97 NE 15 24 29.65 1004 7 11.26538 0 0
12:35 am 00:35 Cloudy with Thunderstorms 43 6 42 5.6 97 97 NE 13 20 29.65 1004 5 8.0467 0 0
12:55 am 00:55 Cloudy with Heavy Thunderstorms 43 5.9 42 5.5 97 97 N 8 13 29.71 1006 7 11.26538 0.05 1.27
1:15 am 01:15 Cloudy with Light Rain 40 4.6 39 4.1 97 97 ENE 8 13 29.71 1006 7 11.26538 0.01 0.254
1:35 am 01:35 Cloudy 40 4.7 40 4.3 97 97 ENE 6 9 29.7 1006 7 11.26538 0.01 0.254
1:55 am 01:55 Cloudy with Mist and Fog 41 5 40 4.5 97 97 ENE 9 15 29.67 1005 5 8.0467 0.01 0.254
2:15 am 02:15 Cloudy with Mist and Fog 41 4.8 40 4.5 98 98 E 8 13 29.67 1005 5 8.0467 0 0
2:35 am 02:35 Cloudy 41 5 40 4.5 97 97 E 10 17 29.67 1005 7 11.26538 0 0
2:55 am 02:55 Cloudy with Mist and Fog 41 5 40 4.6 97 97 E 7 11 29.66 1004 5 8.0467 0 0
3:15 am 03:15 Cloudy 41 5 40 4.6 97 97 NE 7 11 29.64 1004 7 11.26538 0 0
3:35 am 03:35 Cloudy with Mist and Fog 41 5.1 40 4.7 97 97 ENE 6 9 29.64 1004 5 8.0467 0 0
3:55 am 03:55 Cloudy 41 5.2 41 4.8 97 97 NE 8 13 29.62 1003 7 11.26538 0 0
4:15 am 04:15 Cloudy 41 5.2 41 4.8 97 97 NNE 8 13 29.61 1003 7 11.26538 0 0
4:35 am 04:35 Cloudy with Mist and Fog 41 5.1 40 4.7 97 97 NNE 10 17 29.58 1002 5 8.0467 0 0
4:55 am 04:55 Cloudy with Mist and Fog 41 5.1 40 4.7 97 97 NNE 9 15 29.58 1002 5 8.0467 0 0
5:15 am 05:15 Cloudy with Mist and Fog 41 5.1 40 4.7 97 97 NNE 9 15 29.58 1002 5 8.0467 0 0
5:35 am 05:35 Cloudy with Mist and Fog 41 5.1 40 4.7 97 97 NNE 7 11 29.59 1002 5 8.0467 0 0
5:55 am 05:55 Cloudy with Mist and Fog 41 5 40 4.6 97 97 NE 10 17 29.58 1002 2.5 4.02335 0 0
6:15 am 06:15 Cloudy with Mist and Fog 41 5 40 4.6 97 97 NE 10 17 29.56 1001 1.25 2.011675 0 0
6:35 am 06:35 Cloudy with Mist and Fog 41 5.1 40 4.7 97 97 NE 12 19 29.56 1001 0.75 1.207005 0 0
6:55 am 06:55 Cloudy with Fog 41 5.1 40 4.7 97 97 NE 12 19 29.55 1001 0.5 0.80467 0 0
7:15 am 07:15 Cloudy with Fog 41 5.1 41 4.8 98 98 N 7 11 29.57 1001 0.5 0.80467 0 0
7:35 am 07:35 Cloudy with Light Rain 41 5.1 41 4.8 98 98 N 12 19 29.55 1001 0.75 1.207005 0 0
7:55 am 07:55 Cloudy with Light Rain 41 5.2 41 5 99 99 N 10 17 29.56 1001 1.5 2.41401 0 0
8:15 am 08:15 Cloudy with Mist and Fog 42 5.3 41 5 98 98 N 12 19 29.53 1000 3 4.82802 0 0
8:35 am 08:35 Cloudy with Mist and Fog 41 5.2 41 5 99 99 N 14 22 29.54 1000 5 8.0467 0 0
8:55 am 08:55 Cloudy with Light Rain 41 5.2 41 5 99 99 N 10 17 29.54 1000 7 11.26538 0 0
9:15 am 09:15 Cloudy with Rain 42 5.3 41 5 98 98 N 9 15 29.53 1000 5 8.0467 0.01 0.254
9:35 am 09:35 Cloudy with Light Drizzle 42 5.3 41 5 98 98 N 14 22 29.53 1000 5 8.0467 0.02 0.508
9:55 am 09:55 Cloudy with Rain 42 5.3 41 5 98 98 N 9 15 29.52 1000 10 16.0934 0.02 0.508
10:15 am 10:15 Cloudy with Rain 41 5.2 41 4.8 97 97 NNW 12 19 29.53 1000 5 8.0467 0.02 0.508
10:35 am 10:35 Cloudy with Heavy Rain 42 5.5 41 5.1 97 97 NNW 13 20 29.51 999 4 6.43736 0.1 2.54
10:55 am 10:55 Cloudy with Rain 42 5.6 41 5.2 97 97 NNW 14 22 29.5 999 7 11.26538 0.15 3.81
11:15 am 11:15 Cloudy 43 6.1 42 5.6 97 97 N 12 19 29.5 999 10 16.0934 0 0
11:35 am 11:35 Cloudy 43 6.3 42 5.5 95 95 NNW 18 30 29.5 999 10 16.0934 0.01 0.254
11:55 am 11:55 Cloudy with Light Drizzle 42 5.5 40 4.4 93 93 NNW 24 39 29.52 1000 10 16.0934 0.01 0.254
12:15 pm 12:15 Cloudy with Light Rain 41 5.2 39 4 92 92 NNW 22 35 29.53 1000 7 11.26538 0 0
12:35 pm 12:35 Cloudy with Light Drizzle 42 5.3 39 4 91 91 NNW 21 33 29.53 1000 10 16.0934 0 0
12:55 pm 12:55 Cloudy 41 5.2 38 3.6 90 90 N 21 33 29.55 1001 7 11.26538 0 0
1:15 pm 13:15 Cloudy with Mist and Fog 42 5.5 39 4 90 90 NNW 25 41 29.55 1001 5 8.0467 0 0
1:35 pm 13:35 Cloudy with Light Drizzle 41 5 38 3.2 88 88 NNW 23 37 29.57 1001 10 16.0934 0 0
1:55 pm 13:55 Cloudy with Light Rain 41 5.1 38 3.4 89 89 NNW 22 35 29.59 1002 10 16.0934 0 0
2:15 pm 14:15 Cloudy with Drizzle 41 5.1 38 3.6 90 90 NNW 26 43 29.6 1002 7 11.26538 0 0
2:35 pm 14:35 Cloudy with Rain 42 5.4 39 4.1 91 91 NNW 23 37 29.6 1002 7 11.26538 0 0
2:55 pm 14:55 Cloudy with Light Rain 40 4.6 38 3.2 91 91 NW 23 37 29.63 1003 5 8.0467 0.01 0.254
3:15 pm 15:15 Cloudy with Light Rain 40 4.6 38 3.1 90 90 NW 23 37 29.65 1004 5 8.0467 0.01 0.254
3:35 pm 15:35 Cloudy with Light Rain 40 4.3 37 3 91 91 NW 26 43 29.66 1005 5 8.0467 0.03 0.762
3:55 pm 15:55 Cloudy with Rain 40 4.5 38 3.1 91 91 NW 29 46 29.67 1005 7 11.26538 0.03 0.762
4:15 pm 16:15 Cloudy with Rain 41 4.8 38 3.4 91 91 NW 28 44 29.68 1005 7 11.26538 0 0
4:35 pm 16:35 Cloudy with Drizzle 41 5 38 3.3 89 89 NW 23 37 29.7 1006 7 11.26538 0 0
4:55 pm 16:55 Cloudy with Rain 40 4.7 38 3.3 91 91 NW 23 37 29.72 1006 7 11.26538 0.01 0.254
5:15 pm 17:15 Cloudy with Rain 41 5.2 39 3.8 91 91 NW 21 33 29.73 1007 10 16.0934 0.01 0.254
5:35 pm 17:35 Cloudy with Light Rain 42 5.5 39 3.8 89 89 NW 20 31 29.74 1007 10 16.0934 0.02 0.508
5:55 pm 17:55 Cloudy with Light Rain 42 5.5 39 3.8 89 89 NNW 21 33 29.76 1008 10 16.0934 0.02 0.508
6:15 pm 18:15 Cloudy with Light Rain 41 5.2 38 3.5 89 89 NNW 22 35 29.79 1009 7 11.26538 0.01 0.254
6:35 pm 18:35 Cloudy with Rain 42 5.5 38 3.2 85 85 NW 21 33 29.79 1009 10 16.0934 0.02 0.508
6:55 pm 18:55 Cloudy 43 5.9 37 2.6 80 80 NNW 17 28 29.8 1009 10 16.0934 0.02 0.508
7:15 pm 19:15 Cloudy 43 6.1 37 2.8 80 80 NW 15 24 29.8 1009 10 16.0934 0 0
7:35 pm 19:35 Cloudy 43 6 38 3.3 83 83 NW 13 20 29.82 1010 10 16.0934 0 0
7:55 pm 19:55 Cloudy 42 5.8 38 3.6 86 86 WNW 10 17 29.83 1010 10 16.0934 0 0
8:15 pm 20:15 Mostly Cloudy 42 5.5 38 3.5 87 87 W 9 15 29.83 1010 10 16.0934 0 0
8:35 pm 20:35 Clear 42 5.5 38 3.5 87 87 W 10 17 29.84 1011 10 16.0934 0 0
8:55 pm 20:55 Partly Cloudy 42 5.6 38 3.5 87 87 W 10 17 29.85 1011 10 16.0934 0 0
9:15 pm 21:15 Partly Cloudy 42 5.7 38 3.5 86 86 WNW 10 17 29.86 1011 10 16.0934 0 0
9:35 pm 21:35 Partly Cloudy 43 6.2 38 3.1 81 81 WNW 10 17 29.87 1011 10 16.0934 0 0
9:55 pm 21:55 Clear 43 6 38 3.1 82 82 WNW 9 15 29.87 1011 10 16.0934 0 0
10:15 pm 22:15 Partly Cloudy 42 5.7 37 3 83 83 W 12 19 29.88 1012 10 16.0934 0 0
10:35 pm 22:35 Partly Cloudy 42 5.5 37 2.7 82 82 W 13 20 29.88 1012 10 16.0934 0 0
10:55 pm 22:55 Clear 42 5.7 37 2.7 81 81 W 13 20 29.89 1012 10 16.0934 0 0
11:15 pm 23:15 Clear 42 5.5 38 3.1 85 85 W 9 15 29.89 1012 10 16.0934 0 0
11:35 pm 23:35 Clear 41 5.2 38 3.2 87 87 W 8 13 29.91 1013 10 16.0934 0 0
11:55 pm 23:55 Clear 42 5.5 38 3.3 86 86 W 10 17 29.9 1013 10 16.0934 0 0

Powered by AerisWeather